This demonstration page uses our WeatherBlox Daily Observations layout. Learn more.

Left ArrowRight Arrow

41.12389, -100.76542

Hourly Observations for July 1, 2022

Temp ( °F °C ) Dew Point ( °F °C ) Humidity (%) Winds ( mph kmh ) Pressure ( in mb ) Visibility ( mi km ) Precip ( " mm )
12:53 am 00:53 Partly Cloudy 73 22.8 59 15 62 62 E 7 11 29.98 1015 10 16 0.00 0.00
1:53 am 01:53 Clear 72 22.2 58 14.4 61 61 ENE 7 11 29.96 1015 10 16 0.00 0.00
2:40 am 02:40 Cloudy with Nearby Thunderstorms 71 21.7 58 14.4 63 63 W 10 17 29.99 1016 10 16 0.00 0.00
2:53 am 02:53 Windy with Storms Likely 72 22.2 58 14.4 61 61 WNW 22 35 30.03 1017 10 16 0.00 0.00
3:36 am 03:36 Cloudy with Nearby Thunderstorms 64 17.8 59 15 84 84 N 10 17 30.06 1018 5 8 0.34 8.64
3:50 am 03:50 Cloudy with Rain 63 17 61 16 94 94 N 13 20 30.06 1018 6 10 0.46 11.68
3:53 am 03:53 Cloudy with Rain 63 17.2 60 15.6 90 90 N 15 24 30.04 1017 6 10 0.47 11.94
4:53 am 04:53 Cloudy with Light Rain 63 17.2 58 14.4 84 84 E 10 17 30.02 1017 10 16 0.07 1.78
5:53 am 05:53 Partly Cloudy 62 16.7 58 14.4 86 86 E 13 20 30.00 1016 10 16 0.01 0.25
6:53 am 06:53 Mostly Cloudy 63 17.2 58 14.4 84 84 E 6 9 30.00 1016 10 16 0.00 0.00
7:53 am 07:53 Mostly Cloudy 65 18.3 59 15 81 81 ENE 12 19 30.01 1016 10 16 0.00 0.00
8:53 am 08:53 Partly Cloudy 65 18.3 60 15.6 84 84 E 6 9 30.05 1018 10 16 0.00 0.00
9:53 am 09:53 Mostly Sunny 67 19.4 60 15.6 79 79 ESE 8 13 30.07 1018 10 16 0.00 0.00
10:53 am 10:53 Mostly Cloudy 70 21.1 60 15.6 71 71 E 8 13 30.07 1018 10 16 0.00 0.00
11:53 am 11:53 Mostly Cloudy 74 23.3 61 16.1 64 64 ESE 7 11 30.07 1018 10 16 0.00 0.00
12:53 pm 12:53 Mostly Cloudy 78 25.6 61 16.1 56 56 E 10 17 30.05 1018 10 16 0.00 0.00
1:53 pm 13:53 Sunny 79 26.1 62 16.7 56 56 ESE 12 19 30.03 1017 10 16 0.00 0.00
2:53 pm 14:53 Sunny 81 27.2 61 16.1 51 51 SE 8 13 30.01 1016 10 16 0.00 0.00
3:53 pm 15:53 Mostly Sunny 82 27.8 61 16.1 49 49 VRB 3 6 30.01 1016 10 16 0.00 0.00
4:53 pm 16:53 Sunny 84 28.9 62 16.7 48 48 ESE 12 19 29.98 1015 10 16 0.00 0.00
5:53 pm 17:53 Sunny 84 28.9 62 16.7 48 48 ESE 14 22 29.96 1015 10 16 0.00 0.00
6:53 pm 18:53 Sunny 82 27.8 60 15.6 47 47 ESE 15 24 29.93 1014 10 16 0.00 0.00
7:53 pm 19:53 Sunny 80 26.7 59 15 49 49 ESE 12 19 29.93 1014 10 16 0.00 0.00
8:53 pm 20:53 Sunny 74 23.3 61 16.1 64 64 E 8 13 29.96 1015 10 16 0.00 0.00
9:53 pm 21:53 Clear 69 20.6 62 16.7 78 78 ESE 7 11 29.96 1015 10 16 0.00 0.00
10:53 pm 22:53 Clear 68 20 63 17.2 84 84 ESE 7 11 29.98 1015 10 16 0.00 0.00
11:53 pm 23:53 Clear 68 20 63 17.2 84 84 ESE 9 15 29.99 1016 10 16 0.00 0.00

Powered by AerisWeather